FENGYUN 3B

Last updated on Tue Sep 22 2026 00:02:53 GMT+0000 (Coordinated Universal Time)

1 37214U 10059A 26264.63277657 .00000467 00000+0 26503-3 0 9990 2 37214 98.9533 311.0119 0021048 273.6564 202.4419 14.14859832821064
UTC large
Height (km)
Speed (km/s)
/
Latitude / Longitude
Inclination (degrees)
Orbital Period (minutes)
Azimuth
Elevation
Range (km)
Doppler Factor

Next 0 passes for location: London (51.5072 / 0.1276)

No passes found over London.
FENGYUN 3B